This is the latest recevied weather packets stored in our database for station/object DG7YEO-13. If no packets are shown the sender has not sent any weather packets the latest 1 day(s).
| Time | Temp. | Humidity | Pressure | Rain* | Wind** | Luminosity | Snow |
|---|---|---|---|---|---|---|---|
| 1778086925 | 8.89° C | 93% | 1008.4 hPa | 0 mm | - | - | - |
| 1778086025 | 8.89° C | 94% | 1008.3 hPa | 0 mm | - | - | - |
| 1778085126 | 8.89° C | 94% | 1008.2 hPa | 0 mm | - | - | - |
| 1778084225 | 8.89° C | 94% | 1008.3 hPa | 0 mm | - | - | - |
| 1778081525 | 9.44° C | 95% | 1007.9 hPa | 0.25 mm | - | - | - |
| 1778079725 | 9.44° C | 95% | 1007.8 hPa | 0.25 mm | - | - | - |
| 1778078825 | 9.44° C | 95% | 1007.8 hPa | 0 mm | - | - | - |
| 1778076126 | 9.44° C | 95% | 1007.6 hPa | 0.51 mm | - | - | - |
| 1778075225 | 9.44° C | 95% | 1007.6 hPa | 0.51 mm | - | - | - |
| 1778072525 | 9.44° C | 95% | 1007.5 hPa | 0.51 mm | - | - | - |
| 1778070725 | 9.44° C | 95% | 1007.4 hPa | 0.51 mm | - | - | - |
| 1778068025 | 8.89° C | 95% | 1007 hPa | 1.02 mm | - | - | - |
| 1778064425 | 8.33° C | 95% | 1006.9 hPa | 0 mm | - | - | - |
| 1778063525 | 8.33° C | 95% | 1006.8 hPa | 0 mm | - | - | - |
| 1778062625 | 8.33° C | 95% | 1006.7 hPa | 0 mm | - | - | - |
| 1778061725 | 8.33° C | 95% | 1006.6 hPa | 0 mm | - | - | - |
| 1778060825 | 8.33° C | 96% | 1006.5 hPa | 0 mm | - | - | - |
| 1778059926 | 8.33° C | 96% | 1006.4 hPa | 0 mm | - | - | - |
| 1778058125 | 8.33° C | 96% | 1006.3 hPa | 0 mm | - | - | - |
| 1778057225 | 8.33° C | 96% | 1006.2 hPa | 0.25 mm | - | - | - |
| 1778056325 | 8.33° C | 96% | 1006 hPa | 0.51 mm | - | - | - |
| 1778055425 | 8.33° C | 96% | 1006 hPa | 1.02 mm | - | - | - |
| 1778054526 | 8.33° C | 96% | 1005.8 hPa | 1.52 mm | - | - | - |
| 1778053625 | 8.33° C | 96% | 1005.8 hPa | 1.78 mm | - | - | - |
| 1778052725 | 8.33° C | 96% | 1005.7 hPa | 2.29 mm | - | - | - |
* Rain latest hour (hover to see other rain measurements)
** Current wind speed in m/s (hover to see current wind gust speed)